GW0408 Weather Reports


time (UTC)temp
C
wind
direction
speed
KPH
gust
KPH
rain 1hr
cm
rain 24hr
cm
rain mn
cm
humidity
%
barometer
mb
20260504050438 8 200 4.8 6.4 0.00 0.05 0.00 90 1015.0
20260504050201 7 202 4.8 6.4 0.00 0.05 0.00 92 1015.0
20260504045438 7 212 4.8 6.4 0.00 0.05 0.00 94 1014.9
20260504044938 7 211 3.2 6.4 0.00 0.05 0.00 95 1015.0
20260504044930 6 212 3.2 4.8 0.00 0.05 0.00 98 1014.9
20260504043939 6 219 3.2 4.8 0.00 0.05 0.00 99 1014.9
20260504043431 6 206 1.6 3.2 0.00 0.05 0.00 99 1014.9
20260504042932 6 0 0.0 0.0 0.00 0.05 0.00 100 1014.9
20260504042432 6 0 0.0 0.0 0.00 0.05 0.00 99 1014.9
20260504041932 6 0 0.0 0.0 0.00 0.05 0.00 98 1014.9
20260504041432 6 0 0.0 0.0 0.00 0.05 0.00 98 1014.9
20260504040932 6 0 0.0 0.0 0.00 0.05 0.00 98 1014.8
20260504040432 6 0 0.0 3.2 0.00 0.05 0.00 99 1014.8
20260504040154 6 0 0.0 3.2 0.00 0.05 0.05 99 1014.8
20260504035432 6 201 0.0 3.2 0.00 0.05 0.05 99 1014.8
20260504035152 6 0 0.0 3.2 0.00 0.05 0.05 99 1014.8
20260504034432 6 0 1.6 3.2 0.00 0.05 0.05 98 1014.8
20260504033928 6 201 1.6 3.2 0.00 0.05 0.05 98 1014.6
20260504033428 6 202 1.6 3.2 0.00 0.05 0.05 98 1014.6
20260504032929 6 0 1.6 3.2 0.00 0.05 0.05 98 1014.6
20260504032646 6 201 0.0 3.2 0.00 0.05 0.05 98 1014.6
20260504031929 6 194 0.0 3.2 0.00 0.05 0.05 98 1014.6
20260504031429 6 0 0.0 3.2 0.00 0.05 0.05 97 1014.6
20260504030929 6 0 0.0 3.2 0.00 0.05 0.05 96 1014.6
20260504030428 6 0 0.0 3.2 0.00 0.05 0.05 96 1014.6
20260504025929 6 0 1.6 3.2 0.00 0.05 0.05 96 1014.6
20260504025428 6 0 0.0 3.2 0.00 0.05 0.05 95 1014.6
20260504024929 6 0 0.0 0.0 0.00 0.05 0.05 94 1014.6
20260504024653 7 0 0.0 3.2 0.00 0.05 0.05 94 1014.5
20260504023930 7 0 1.6 3.2 0.00 0.05 0.05 94 1014.5
20260504023426 7 199 1.6 3.2 0.00 0.05 0.05 93 1014.6
20260504023146 7 196 0.0 3.2 0.00 0.05 0.05 93 1014.6
20260504022426 7 0 0.0 3.2 0.00 0.05 0.05 92 1014.6
20260504021926 7 0 0.0 3.2 0.00 0.05 0.05 92 1014.5
20260504021427 7 0 0.0 3.2 0.00 0.05 0.05 91 1014.5
20260504020925 7 204 0.0 3.2 0.00 0.05 0.05 90 1014.5
20260504020424 7 0 1.6 3.2 0.00 0.05 0.05 90 1014.5
20260504015925 7 206 0.0 3.2 0.00 0.05 0.05 90 1014.4
20260504015424 7 0 0.0 0.0 0.00 0.05 0.05 89 1014.3
20260504014924 8 0 0.0 3.2 0.00 0.05 0.05 89 1014.3
20260504014642 8 0 1.6 3.2 0.00 0.05 0.05 88 1014.2
20260504014150 8 0 1.6 3.2 0.00 0.05 0.05 86 1014.2
20260504013647 8 213 3.2 3.2 0.00 0.05 0.05 83 1014.2
20260504013130 8 219 3.2 3.2 0.00 0.05 0.05 83 1014.2
20260504013014 8 216 3.2 3.2 0.00 0.05 0.05 82 1014.1
20260504011922 8 220 3.2 4.8 0.00 0.05 0.05 82 1014.2
20260504011423 9 220 3.2 4.8 0.00 0.05 0.05 82 1014.2
20260504010922 9 217 3.2 4.8 0.00 0.05 0.05 78 1014.2
20260504010423 9 218 3.2 4.8 0.00 0.05 0.05 76 1014.2
20260504005923 9 212 3.2 4.8 0.00 0.05 0.05 74 1014.2
20260504005644 10 217 3.2 4.8 0.00 0.05 0.05 73 1014.1
20260504004921 10 207 3.2 4.8 0.00 0.05 0.05 73 1014.1
20260504004416 10 193 3.2 4.8 0.00 0.05 0.05 71 1014.2
20260504003916 10 208 3.2 4.8 0.00 0.05 0.05 73 1014.3
20260504003417 11 190 3.2 4.8 0.00 0.05 0.05 69 1014.3
20260504002917 11 191 3.2 3.2 0.00 0.05 0.05 66 1014.3
20260504002417 11 199 3.2 3.2 0.00 0.05 0.05 63 1014.3
20260504001917 11 202 1.6 3.2 0.00 0.05 0.05 63 1014.2
20260504001417 12 191 0.0 3.2 0.00 0.05 0.05 61 1014.1
20260504000917 12 0 0.0 1.6 0.00 0.05 0.05 59 1014.2
20260504000417 13 0 0.0 4.8 0.00 0.05 0.05 58 1014.2
20260503235917 13 36 0.0 4.8 0.00 0.05 0.05 56 1014.1
20260503235415 14 41 0.0 3.2 0.00 0.05 0.05 55 1014.1
20260503234914 14 0 0.0 3.2 0.00 0.05 0.05 53 1014.1
20260503234412 15 344 1.6 3.2 0.00 0.05 0.05 51 1014.1
20260503233911 16 240 3.2 4.8 0.00 0.05 0.05 49 1014.1
20260503233411 16 222 3.2 4.8 0.00 0.05 0.05 45 1014.1
20260503232911 17 195 1.6 3.2 0.00 0.05 0.05 43 1014.1
20260503232631 18 193 0.0 3.2 0.00 0.05 0.05 41 1014.1
20260503231912 18 0 0.0 6.4 0.00 0.05 0.05 38 1014.1
20260503231412 18 0 1.6 6.4 0.00 0.05 0.05 38 1014.0
20260503230912 18 0 1.6 6.4 0.00 0.05 0.05 37 1014.0
20260503230412 18 186 1.6 6.4 0.00 0.05 0.05 35 1014.0
20260503230132 17 313 1.6 8.0 0.00 0.05 0.05 36 1014.1
20260503225412 17 296 3.2 8.0 0.00 0.05 0.05 34 1014.1
20260503225132 17 342 3.2 9.7 0.00 0.05 0.05 35 1014.1
20260503224630 17 269 3.2 9.7 0.00 0.05 0.05 35 1014.2
20260503223909 17 153 4.8 12.9 0.00 0.05 0.05 35 1014.3
20260503223407 17 152 4.8 12.9 0.00 0.05 0.05 35 1014.2
20260503222907 17 260 3.2 11.3 0.00 0.05 0.05 35 1014.2
20260503222407 18 244 3.2 11.3 0.00 0.05 0.05 36 1014.2
20260503221907 18 317 3.2 11.3 0.00 0.05 0.05 35 1014.3
20260503221407 17 85 1.6 9.7 0.00 0.05 0.05 35 1014.3
20260503220907 17 324 4.8 14.5 0.00 0.05 0.05 35 1014.3
20260503220407 17 9 4.8 14.5 0.00 0.05 0.05 36 1014.4
20260503215907 17 0 4.8 14.5 0.00 0.05 0.05 36 1014.3
20260503215405 17 322 3.2 14.5 0.00 0.05 0.05 36 1014.3
20260503214904 17 5 3.2 12.9 0.00 0.05 0.05 37 1014.2
20260503214405 17 208 4.8 12.9 0.00 0.05 0.05 36 1014.2
20260503213905 17 197 4.8 14.5 0.00 0.05 0.05 36 1014.2
20260503213402 17 114 4.8 14.5 0.00 0.05 0.05 37 1014.3
20260503212902 17 269 6.4 12.9 0.00 0.05 0.05 37 1014.2
20260503212402 17 138 4.8 12.9 0.00 0.05 0.05 39 1014.2
20260503211901 17 200 4.8 12.9 0.00 0.05 0.05 38 1014.2
20260503211625 17 196 4.8 12.9 0.00 0.05 0.05 37 1014.2
20260503210902 17 299 4.8 14.5 0.00 0.05 0.05 38 1014.2
20260503210402 16 187 6.4 14.5 0.00 0.05 0.05 39 1014.2
20260503205902 16 171 6.4 14.5 0.00 0.05 0.05 38 1014.2
20260503205403 16 147 6.4 12.9 0.00 0.05 0.05 38 1014.2
20260503204900 16 277 6.4 16.1 0.00 0.05 0.05 37 1014.3
20260503204359 17 208 4.8 16.1 0.00 0.05 0.05 37 1014.3
20260503204127 16 272 3.2 9.7 0.00 0.05 0.05 38 1014.1
20260503203400 16 151 4.8 16.1 0.00 0.05 0.05 36 1014.3
20260503202859 16 0 4.8 16.1 0.00 0.05 0.05 38 1014.3
20260503202359 16 247 4.8 16.1 0.00 0.05 0.05 37 1014.2
20260503201900 16 189 4.8 16.1 0.00 0.05 0.05 39 1014.2
20260503201400 16 213 4.8 14.5 0.00 0.05 0.05 38 1014.3
20260503200900 16 243 3.2 11.3 0.00 0.05 0.05 38 1014.3
20260503200627 16 241 6.4 16.1 0.00 0.05 0.05 38 1014.5
20260503195858 16 223 6.4 17.7 0.00 0.05 0.05 38 1014.6
20260503195355 16 233 6.4 17.7 0.00 0.03 0.03 39 1014.7
20260503194856 16 231 6.4 17.7 0.00 0.03 0.03 38 1014.7
20260503194355 16 256 6.4 16.1 0.00 0.03 0.03 39 1014.8
20260503193855 16 207 6.4 17.7 0.00 0.03 0.03 40 1014.8
20260503193616 16 92 6.4 17.7 0.00 0.03 0.03 40 1014.9
20260503192856 16 234 6.4 16.1 0.00 0.03 0.03 40 1015.0
20260503192356 16 253 4.8 14.5 0.00 0.03 0.03 39 1015.0
20260503191855 16 358 3.2 12.9 0.00 0.03 0.03 42 1015.0
20260503191355 15 262 4.8 12.9 0.00 0.03 0.03 39 1015.1
20260503191116 15 235 6.4 12.9 0.00 0.03 0.03 39 1015.2
20260503190615 16 314 4.8 12.9 0.00 0.03 0.03 38 1015.3
20260503185856 15 223 6.4 20.9 0.00 0.03 0.03 39 1015.3
20260503185352 15 184 6.4 20.9 0.00 0.03 0.03 38 1015.4
20260503184852 15 251 4.8 14.5 0.00 0.03 0.03 38 1015.5
20260503184353 15 85 4.8 14.5 0.00 0.03 0.03 39 1015.5
20260503183853 15 254 4.8 20.9 0.00 0.03 0.03 37 1015.5
20260503183350 15 302 4.8 20.9 0.00 0.03 0.03 38 1015.5
20260503183336 15 100 4.8 12.9 0.00 0.03 0.03 37 1015.7
20260503182350 15 22 4.8 14.5 0.00 0.03 0.03 38 1015.7
20260503181851 15 299 4.8 14.5 0.00 0.03 0.03 37 1015.6
20260503181351 15 321 4.8 16.1 0.00 0.03 0.03 38 1015.7
20260503180850 14 153 6.4 19.3 0.00 0.03 0.03 39 1015.8
20260503180348 14 312 8.0 20.9 0.00 0.03 0.03 39 1015.9
20260503175848 14 250 8.0 20.9 0.00 0.03 0.03 39 1015.9
20260503175348 15 224 6.4 16.1 0.00 0.03 0.03 40 1015.8
20260503174847 14 242 4.8 14.5 0.00 0.03 0.03 39 1015.8
20260503174347 14 242 6.4 14.5 0.00 0.03 0.03 39 1015.9
20260503173847 14 244 6.4 14.5 0.00 0.03 0.03 41 1016.0
20260503173347 14 291 6.4 14.5 0.00 0.03 0.03 40 1016.0
20260503173107 14 172 4.8 14.5 0.00 0.03 0.03 40 1016.0
20260503172349 14 225 4.8 17.7 0.00 0.03 0.03 40 1016.0
20260503171849 13 215 6.4 17.7 0.00 0.03 0.03 40 1016.1
20260503171349 13 319 4.8 12.9 0.00 0.03 0.03 42 1016.3
20260503170849 13 303 4.8 16.1 0.00 0.03 0.03 40 1016.3
20260503170346 13 227 6.4 20.9 0.00 0.03 0.03 40 1016.5
20260503150845 11 272 4.8 24.1 0.00 0.00 0.00 47 1017.0
20260503150341 11 352 6.4 24.1 0.00 0.00 0.00 46 1017.1
20260503150318 11 50 6.4 20.9 0.00 0.00 0.00 48 1017.0
20260503131334 10 4 6.4 17.7 0.00 0.00 0.00 56 1016.5
20260503130831 10 247 6.4 17.7 0.00 0.00 0.00 56 1016.3
20260503130332 10 261 4.8 12.9 0.00 0.00 0.00 58 1016.3
20260503110757 8 224 4.8 14.5 0.00 0.00 0.00 67 1014.7
20260503110257 8 357 3.2 9.7 0.00 0.00 0.00 67 1014.6
20260503100256 9 213 3.2 9.7 0.00 0.00 0.00 63 1013.5
20260503090218 9 207 4.8 11.3 0.00 0.00 0.00 64 1012.8
20260503081422 9 276 3.2 6.4 0.00 0.00 0.00 75 1011.8
20260503080907 9 210 3.2 4.8 0.00 0.00 0.00 76 1011.8
20260503080131 9 225 3.2 4.8 0.00 0.00 0.00 75 1011.7
20260503072615 9 221 3.2 4.8 0.00 0.00 0.00 79 1011.4
20260503072559 9 198 3.2 4.8 0.00 0.00 0.00 79 1011.3
20260503071616 9 209 3.2 6.4 0.00 0.00 0.00 79 1011.3
20260503071555 9 184 3.2 6.4 0.00 0.00 0.00 80 1011.2
20260503070600 9 223 3.2 4.8 0.00 0.00 0.00 81 1011.1
20260503060322 9 206 3.2 4.8 0.00 0.00 0.00 93 1010.8
20260503055100 9 215 3.2 8.0 0.00 0.00 0.00 93 1010.8
20260503054600 9 252 3.2 8.0 0.00 0.00 0.00 92 1010.8
20260503054047 9 225 3.2 6.4 0.00 0.00 0.00 93 1010.8
20260503053546 9 247 3.2 6.4 0.00 0.00 0.00 93 1010.8
20260503053048 8 218 3.2 4.8 0.00 0.00 0.00 93 1010.7
20260503052535 8 218 3.2 4.8 0.00 0.00 0.00 94 1010.7
20260503052236 8 219 3.2 4.8 0.00 0.00 0.00 96 1010.7
20260503052118 8 223 3.2 4.8 0.00 0.00 0.00 95 1010.7